Voltar ao catálogo

STARLINK-5736

AtivoComunicaçõesVLEO
NORAD 55584·PAYLOAD·🇺🇸 United States

Lançado Feb 12, 2023 de Cape Canaveral Space Force Station

Loading…

Próximas Passagens (próximas 24 horas)

TLE

AtualizadoSource: CelesTrak SupGP

Época: Sep 14, 2026, 21:42 UTC

1 55584C 23020R   26257.90465278  .00010753  00000+0  38939-3 0  2574
2 55584  43.0013  17.0504 0001505 275.7871 158.3029 15.27579391    13

Acompanhe STARLINK-5736 em tempo real com AllMySat

Download on the App Store